FW7611 Weather Reports


time (UTC)temp
F
wind
direction
speed
knots
gust
knots
rain 1hr
in
rain 24hr
in
rain mn
in
humidity
%
barometer
mb
20260510190044 81 216 0.9 6.1 0.00 0.00 0.00 30 1016.7
20260510184542 81 254 0.0 4.3 0.00 0.00 0.00 29 1016.6
20260510183041 81 258 0.9 4.3 0.00 0.00 0.00 29 1016.8
20260510181534 81 285 0.9 3.5 0.00 0.00 0.00 28 1016.8
20260510180041 81 293 0.9 4.3 0.00 0.00 0.00 28 1016.8
20260510174540 81 298 0.9 7.0 0.00 0.00 0.00 30 1017.2
20260510173043 81 315 1.7 4.3 0.00 0.00 0.00 28 1017.5
20260510171536 80 222 0.9 5.2 0.00 0.00 0.00 32 1017.5
20260510170045 79 112 0.9 3.5 0.00 0.00 0.00 31 1017.5
20260510164544 80 301 0.9 2.6 0.00 0.00 0.00 28 1017.6
20260510163041 79 163 1.7 3.5 0.00 0.00 0.00 31 1017.8
20260510161540 78 0 0.9 2.6 0.00 0.00 0.00 34 1017.7
20260510160039 78 303 0.9 2.6 0.00 0.00 0.00 37 1017.8
20260510154544 76 33 0.0 1.7 0.00 0.00 0.00 42 1017.9
20260510153036 77 300 0.9 2.6 0.00 0.00 0.00 41 1018.1
20260510151544 76 28 0.0 1.7 0.00 0.00 0.00 43 1018.1
20260510150048 75 330 0.9 2.6 0.00 0.00 0.00 43 1018.1
20260510144557 74 0 0.0 1.7 0.00 0.00 0.00 49 1018.0
20260510143037 72 360 0.0 1.7 0.00 0.00 0.00 55 1017.9
20260510141540 72 268 0.0 1.7 0.00 0.00 0.00 57 1018.0
20260510140038 70 352 0.0 1.7 0.00 0.00 0.00 62 1018.2
20260510134558 67 118 0.0 1.7 0.00 0.00 0.00 67 1018.1
20260510133040 66 0 0.0 1.7 0.00 0.00 0.00 66 1017.9
20260510131540 65 300 0.0 1.7 0.00 0.00 0.00 72 1018.0
20260510130040 63 260 0.0 1.7 0.00 0.00 0.00 76 1017.9
20260510124538 61 0 0.0 1.7 0.00 0.00 0.00 81 1017.9
20260510123041 59 0 0.0 1.7 0.00 0.00 0.00 83 1017.8
20260510121541 59 0 0.0 1.7 0.00 0.00 0.00 84 1017.6
20260510120040 57 318 0.0 1.7 0.00 0.00 0.00 89 1017.4
20260510114540 56 0 0.0 1.7 0.00 0.00 0.00 91 1016.8
20260510113037 55 0 0.0 1.7 0.00 0.00 0.00 92 1016.7
20260510111546 54 0 0.0 1.7 0.00 0.00 0.00 93 1016.5
20260510110041 54 0 0.0 1.7 0.00 0.00 0.00 93 1016.1
20260510104554 54 0 0.0 1.7 0.00 0.00 0.00 94 1016.1
20260510103043 54 0 0.0 1.7 0.00 0.00 0.00 94 1015.6
20260510101540 54 0 0.0 1.7 0.00 0.00 0.00 94 1015.2
20260510100036 54 0 0.0 1.7 0.00 0.00 0.00 94 1015.1
20260510094543 55 0 0.0 1.7 0.00 0.00 0.00 94 1015.1
20260510093040 55 0 0.0 1.7 0.00 0.00 0.00 94 1015.0
20260510091541 56 0 0.0 1.7 0.00 0.00 0.00 94 1014.9
20260510090043 56 0 0.0 0.0 0.00 0.00 0.00 94 1014.9
20260510084539 56 0 0.0 1.7 0.00 0.00 0.00 94 1014.6
20260510083035 56 0 0.0 0.0 0.00 0.00 0.00 94 1014.6
20260510081558 56 0 0.0 0.0 0.00 0.00 0.00 94 1014.5
20260510080042 57 0 0.0 0.0 0.00 0.00 0.00 94 1014.4
20260510074541 57 0 0.0 0.0 0.00 0.00 0.00 94 1014.2
20260510073040 57 0 0.0 1.7 0.00 0.00 0.00 94 1014.2
20260510071537 57 0 0.0 0.0 0.00 0.00 0.00 94 1014.1
20260510070047 57 0 0.0 0.0 0.00 0.00 0.00 93 1014.0
20260510064535 58 0 0.0 1.7 0.00 0.00 0.00 93 1013.9
20260510063041 58 0 0.9 1.7 0.00 0.00 0.00 93 1014.1
20260510061540 58 0 0.0 0.0 0.00 0.00 0.00 93 1014.1
20260510060049 58 0 0.0 0.0 0.00 0.00 0.00 92 1014.2
20260510054537 59 0 0.0 0.0 0.00 0.00 0.00 92 1014.1
20260510053036 59 0 0.0 0.0 0.00 0.00 0.00 92 1014.1
20260510051601 59 0 0.0 0.0 0.00 0.00 0.00 91 1014.4
20260510050040 59 0 0.0 0.0 0.00 0.00 0.00 91 1014.3
20260510044543 60 0 0.0 0.0 0.00 0.00 0.00 90 1014.3
20260510043049 60 0 0.0 0.0 0.00 0.00 0.00 90 1014.2
20260510041537 60 0 0.0 0.0 0.00 0.00 0.00 89 1014.3
20260510040046 61 0 0.0 0.0 0.00 0.00 0.00 88 1014.2
20260510034545 62 0 0.0 0.0 0.00 0.00 0.00 87 1014.2
20260510033041 62 0 0.0 0.0 0.00 0.00 0.00 86 1014.2
20260510031608 62 0 0.0 0.0 0.00 0.00 0.00 85 1014.3
20260510030038 63 0 0.0 0.0 0.00 0.00 0.00 84 1014.4
20260510024538 63 0 0.0 0.0 0.00 0.00 0.00 83 1014.1
20260510023051 64 0 0.0 0.0 0.00 0.00 0.00 82 1014.1
20260510021544 65 0 0.0 1.7 0.00 0.00 0.00 80 1013.8
20260510020042 65 217 0.0 1.7 0.00 0.00 0.00 79 1013.6
20260510014541 66 0 0.0 1.7 0.00 0.00 0.00 77 1013.8
20260510013038 67 199 0.0 1.7 0.00 0.00 0.00 76 1013.4
20260510011543 67 222 0.0 1.7 0.00 0.00 0.00 74 1013.2
20260510010037 68 206 0.0 2.6 0.00 0.00 0.00 74 1012.8
20260510004542 68 240 1.7 7.8 0.00 0.00 0.00 72 1012.5
20260510003041 69 202 0.0 1.7 0.00 0.00 0.00 71 1012.1
20260510001540 69 222 0.0 1.7 0.00 0.00 0.00 70 1012.2
20260510000037 70 0 0.0 2.6 0.00 0.00 0.00 68 1012.0
20260509234536 70 202 0.0 3.5 0.00 0.00 0.00 68 1012.1
20260509233041 70 220 0.9 3.5 0.00 0.00 0.00 66 1011.9
20260509231546 71 262 1.7 4.3 0.00 0.00 0.00 65 1011.5
20260509230040 71 269 0.9 4.3 0.00 0.00 0.00 65 1011.5
20260509224537 71 222 0.9 5.2 0.00 0.00 0.00 63 1011.2
20260509223040 72 275 0.9 5.2 0.00 0.00 0.00 62 1011.0
20260509221539 72 313 0.9 1.7 0.00 0.00 0.00 62 1011.2
20260509220038 72 240 0.9 4.3 0.00 0.00 0.00 62 1011.1
20260509214536 73 192 0.9 6.1 0.00 0.00 0.00 60 1011.1
20260509213057 73 242 1.7 8.7 0.00 0.00 0.00 58 1011.1
20260509211606 73 253 0.9 3.5 0.00 0.00 0.00 59 1011.0
20260509210040 74 274 1.7 5.2 0.00 0.00 0.00 59 1010.8
20260509204544 73 205 2.6 6.1 0.00 0.00 0.00 58 1010.7
20260509203042 72 241 1.7 8.7 0.00 0.00 0.00 62 1010.9
20260509201534 72 268 3.5 8.7 0.00 0.00 0.00 63 1010.8
20260509200035 72 234 0.9 7.0 0.00 0.00 0.00 62 1011.1
20260509194543 73 252 0.9 9.6 0.00 0.00 0.00 62 1011.1
20260509193040 72 257 2.6 9.6 0.00 0.00 0.00 63 1011.5
20260509191540 72 265 1.7 7.8 0.00 0.00 0.00 62 1011.7